Flag for Cuba Weather past 2 weeks in Holguín, Cuba

Now
90 °F

Scattered clouds.


Feels Like: 98 °F
Forecast: N/A
Wind: 7 mph from Northwest

Location: Holguin Civ / Mil

Current Time: Sep 21, 2014 at 7:07:20 PM

Latest Report: Sep 21, 2014 at 4:50 PM


Visibility: N/A

Pressure: 29.89 "Hg

Humidity: 59%

Dew point: 73 °F

Location of HolguínLocation

Historic Weather in Holguín — Graph

°F

Holguín temperature yesterday

Maximum temperature yesterday: 93 °F (at 3:50 PM)
Minimum temperature yesterday: 73 °F (at 3:51 AM)
Average temperature yesterday: 80 °F

Past Weeks' High & Low Weather Summary

 TemperatureHumidityPressure
High93 °F (Sep 11, 3:50 PM)100% (Sep 6, 10:51 PM)30.07 "Hg (Sep 6, 10:51 PM)
Low70 °F (Sep 7, 1:50 AM)38% (Sep 11, 2:50 PM)29.86 "Hg (Sep 11, 4:50 PM)
Average79 °F79%29.97 "Hg
* Reported Sep 6 4:51 PM — Sep 21 4:50 PM, Holguín, Weather by CustomWeather, © 2014

Note: Actual official high and low records may vary slightly from our data, if they occured in-between our weather recording intervals... More about our weather records

Advertising

Holguín weather history for previous 24 hours

 ConditionsComfort  
Time TempWeatherWind HumidityBarometerVisibility
4:50 PM
Sep 21
90 °FScattered clouds.7 mph59%29.89 "HgN/A
3:50 PM91 °FScattered clouds.5 mph49%29.92 "HgN/A
2:50 PM91 °FScattered clouds.5 mph56%29.92 "HgN/A
1:50 PM91 °FScattered clouds.3 mph56%29.95 "HgN/A
12:51 PM88 °FScattered clouds.5 mph62%29.98 "HgN/A
11:50 AM88 °FScattered clouds.3 mph62%30.04 "HgN/A
10:51 AM86 °FScattered clouds.3 mph66%30.04 "HgN/A
9:50 AM82 °FPassing clouds.1 mph79%30.04 "Hg6 mi
8:50 AM75 °FPassing clouds.2 mph94%30.01 "Hg6 mi
7:50 AM73 °FFog.3 mph94%29.98 "Hg0 mi
7:02 AM73 °FFog.2 mph94%29.98 "Hg0 mi
5:50 AM73 °FFog.1 mph94%29.95 "Hg3 mi
4:50 AM73 °FFog.5 mph94%29.95 "Hg0 mi
4:01 AM73 °FLight fog.3 mph100%29.92 "Hg1 mi
2:50 AM75 °FFog.2 mph94%29.95 "Hg4 mi
1:50 AM75 °FPassing clouds.2 mph94%29.95 "Hg5 mi
12:50 AM77 °FThunderstorms. Passing clouds.3 mph89%29.98 "Hg6 mi
11:50 PM
Sep 20
77 °FThunderstorms. Passing clouds.6 mph94%29.98 "Hg6 mi
10:50 PM79 °FThunderstorms. Passing clouds.6 mph89%30.01 "Hg5 mi
10:02 PM79 °FThundershowers. Passing clouds.7 mph89%29.98 "Hg5 mi
8:50 PM79 °FPassing clouds.8 mph89%29.95 "HgN/A
7:50 PM81 °FPassing clouds.7 mph84%29.92 "HgN/A
Weather by CustomWeather, © 2014

See weather overviewHow to use our weather pages